Location: Le Petit-Vavre
(46.5081°N, 1.5239°E)
Time: 21:36:27
(UTC+00:00)

Meteor 1-11 Rocket - Pass Details

Date: 03 March 2021
Orbit: 831 x 916 km, 81.2° (Epoch: 21 April)

Event Time Altitude Azimuth Distance (km) Brightness Sun altitude
Rises 19:23:07 0° 174° (S) 3,466 6.7 -18.0°
Reaches altitude 10° 19:25:37 10° 169° (S) 2,519 6.0 -18.4°
Maximum altitude 19:31:08 52° 95° (E) 1,063 3.8 -19.3°
Drops below altitude 10° 19:36:35 10° 20° (NNE) 2,483 6.1 -20.3°
Sets 19:39:02 0° 16° (NNE) 3,413 6.8 -20.7°
